SCP
-0 -0 0 0 0 0 0 0 0 0 0 0 0 0 0 0 0 0 0 0 0 0 0 0 0 0 0 0 0 0 0 0 0 0 0 0 0 0 0 0 -0 0 -0
-0 0 0 0 0 0 0 0 0 0 0 0 0 0 0 0 0 0 0 0 0 0 0 0 0 0 0 0 0 0 0 0 0 0 0 -0 -0 -0 0 -0 0 0 0
-0 0 0 0 0 0 0 0 0 0 0 0 0 0 0 0 0 0 0 0 0 0 0 0 0 0 0 0 0 0 0 0 0 0 0 -0 0 -0 0 0 0 0 0
-0 0 0 0 0 0 0 0 0 0 0 0 0 0 0 0 0 0 0 0 0 0 0 0 0 0 0 0 0 0 0 0 0 0 0 -0 0 0 0 0 0 0 0
0 0 0 0 0 0 0 0 0 0 0 0 0 0 0 0 0 0 0 0 0 0 0 0 0 0 0 0 0 0 0 0 0 0 -0 -0 0 0 0 0 0 0 0
-0 -0 -0 0 0 0 0 0 0 0 0 0 0 0 0 0 0 0 0 0 0 0 0 0 0 0 0 0 0 0 0 0 0 0 -0 0 0 0 0 0 0 0 0
-0 -0 0 0 0 0 0 0 0 0 0 0 0 0 0 0 0 0 0 0 0 0 0 0 0 0 0 0 0 0 0 -0 -0 0 -0 0 0 0 0 0 0 0 0
-0 -0 0 0 0 0 0 0 0 0 0 0 0 0 0 0 0 0 -0 0 0 0 0 0 0 0 0 0 0 0 0 -0 0 0 0 0 0 0 0 0 1 0 0
-0 0 0 0 0 0 0 0 0 0 0 0 0 0 0 0 0 0 0 -0 -0 -0 0 0 0 0 -0 -0 -0 0 0 -0 0 0 0 0 0 0 0 1 1 0 0
0 0 0 0 0 0 0 0 0 0 0 0 0 0 0 0 0 0 0 0 0 0 -0 -0 -0 -0 -0 -0 -0 0 -0 -0 -0 0 0 0 1 0 0 1 0 0 0
0 0 0 -0 0 0 0 0 0 0 0 0 0 -0 0 0 0 0 0 0 0 0 -0 -0 -0 -0 -0 -0 -0 -0 -0 0 0 0 1 1 1 0 0 0 0 0 0
0 0 0 0 0 0 0 0 0 0 0 0 0 0 0 0 0 0 0 0 0 0 0 0 0 0 0 0 -0 -0 0 0 0 0 0 0 0 0 0 0 0 0 0
0 0 0 1 1 0 0 0 0 0 0 0 0 0 0 0 0 0 0 0 0 0 0 0 0 0 0 -0 0 0 -0 0 0 0 0 0 0 0 0 0 0 0 0
0 1 1 1 2 1 0 0 1 1 0 0 0 0 0 0 0 0 0 0 0 0 0 0 0 0 0 0 0 -0 -0 0 0 0 0 0 0 0 0 0 0 0 0
0 1 1 2 2 4 2 1 1 0 0 0 0 0 0 -0 0 0 0 0 0 0 0 0 0 0 0 0 0 -0 -0 0 0 0 0 0 0 0 0 0 0 0 0
0 0 0 2 4 4 2 2 1 1 1 1 1 0 0 0 0 0 0 0 0 0 0 0 0 0 0 0 0 0 0 0 0 0 0 0 0 0 0 0 0 0 0
0 0 1 5 5 5 3 2 1 1 0 2 1 1 0 0 0 0 0 0 0 0 0 0 0 0 0 0 0 0 0 0 0 0 0 0 0 0 0 0 0 0 0
-0 0 1 2 5 6 5 3 1 1 1 2 2 1 0 0 0 0 -0 0 0 0 0 0 0 0 0 0 0 0 0 0 0 0 0 0 0 0 0 0 0 0 0
0 0 2 2 4 4 4 3 1 1 2 3 2 1 0 0 0 0 0 0 0 0 0 0 0 0 0 0 -0 0 0 0 0 0 0 0 0 0 0 0 0 0 0
1 1 1 2 5 6 4 4 2 1 3 2 2 1 1 0 0 0 0 0 0 0 0 0 0 0 -0 -0 -0 0 0 0 0 0 0 0 0 0 0 0 0 0 0
1 2 2 3 5 5 4 3 1 1 3 2 1 1 1 0 0 0 0 0 0 0 0 0 0 0 0 0 0 0 0 0 0 0 0 0 0 0 0 0 0 0 0
1 2 3 3 5 3 2 2 1 2 1 1 2 1 1 0 0 0 0 0 0 0 0 0 0 -0 0 0 0 0 0 0 0 0 0 0 0 0 0 0 0 0 0
2 2 2 3 5 3 0 2 2 2 3 2 1 2 1 0 0 0 0 0 0 0 0 0 0 0 0 0 0 0 0 0 0 0 0 0 0 0 0 0 0 0 0
2 2 2 3 5 2 -0 0 3 2 1 1 1 1 1 0 0 0 0 0 0 0 0 0 0 0 0 0 0 0 0 0 0 0 0 0 0 0 0 0 0 0 0
2 2 2 3 4 2 2 0 2 2 0 1 1 1 1 1 0 0 0 0 0 0 0 0 0 0 0 0 0 0 0 0 0 0 0 0 0 0 0 0 0 0 0
1 2 3 4 3 2 2 1 1 2 2 1 1 0 1 0 0 0 0 0 0 0 0 0 0 0 0 0 -0 -0 0 0 0 0 0 0 0 0 0 0 0 0 0
Wind_Speed_500mb
13 12 8 6 1 4 6 5 1 3 7 13 16 17 16 16 15 11 11 10 10 12 11 10 7 4 5 12 13 15 15 16 17 15 24 37 39 45 43 28 44 51 39
3 7 10 9 7 7 6 4 2 5 8 12 14 14 13 11 11 9 9 9 11 13 11 9 8 6 2 5 14 18 18 19 18 16 17 15 13 16 36 17 40 53 45
6 15 18 13 11 10 10 6 5 5 6 10 11 10 8 9 8 9 12 12 11 12 11 10 7 6 5 2 4 13 21 20 18 15 16 13 7 11 12 16 15 28 26
13 10 16 14 13 11 9 6 2 1 4 5 5 5 7 8 10 13 14 14 13 13 12 12 10 8 7 5 1 5 14 22 22 20 19 14 25 7 11 14 17 16 21
24 14 6 12 15 14 11 7 5 4 4 5 6 7 8 11 13 14 15 16 16 15 15 14 11 9 9 8 6 3 7 14 24 25 25 14 42 21 11 13 14 14 14
15 12 13 14 17 17 15 12 9 8 8 8 9 10 10 11 11 13 14 14 13 12 12 12 12 10 8 7 6 6 3 7 16 27 24 12 30 24 11 15 16 13 14
20 1 12 12 14 16 16 15 13 11 11 11 10 9 9 10 11 13 15 16 15 14 11 10 11 10 8 6 6 3 3 8 16 26 14 14 21 17 12 14 21 22 20
17 11 4 9 10 14 16 17 15 12 13 12 10 8 8 11 15 17 16 16 18 18 17 12 9 9 7 6 8 5 11 21 27 11 13 43 33 29 26 22 26 23 20
20 17 10 10 8 10 14 16 15 14 15 14 12 10 11 16 22 24 15 12 19 19 19 17 14 11 7 6 10 11 17 32 20 21 13 24 27 24 25 26 28 22 20
17 14 5 6 5 3 12 12 13 16 16 17 18 21 17 13 18 13 17 14 24 19 16 15 16 18 23 21 15 16 30 29 17 10 18 19 15 21 23 28 26 21 19
18 15 19 14 9 3 15 10 9 15 16 16 17 22 14 20 16 6 16 24 21 17 13 20 20 23 18 23 26 25 21 15 5 35 29 18 8 18 22 21 20 18 16
26 23 20 13 14 19 16 13 8 12 12 16 17 13 20 6 7 5 21 18 21 26 15 22 17 13 13 9 10 5 8 7 24 26 12 12 5 14 20 20 19 17 14
28 28 26 27 24 19 19 12 6 7 2 6 9 2 3 4 11 15 20 13 29 14 18 21 19 19 3 8 8 11 9 7 22 17 11 5 7 18 21 20 17 14 14
32 36 30 28 32 26 18 11 18 13 9 11 9 15 9 4 10 3 9 6 14 5 14 13 10 17 1 3 5 11 9 12 19 15 8 2 6 22 22 19 16 15 15
14 24 27 31 38 32 36 17 22 15 14 17 19 14 8 9 15 4 14 2 11 7 10 11 10 11 5 2 3 6 2 16 13 6 1 7 3 13 20 20 20 20 20
16 15 16 28 36 39 35 30 34 20 18 21 13 19 17 11 19 8 9 7 7 9 8 12 13 7 5 5 8 9 13 4 4 8 6 1 6 5 12 23 26 25 23
7 11 17 26 36 38 36 34 34 24 15 21 15 30 28 20 16 13 3 8 9 14 8 9 8 11 6 8 7 4 4 6 7 5 8 12 8 10 6 7 11 21 22
7 8 22 26 38 41 44 36 30 24 25 26 24 28 29 20 18 9 2 7 19 17 8 9 6 5 6 7 9 7 6 10 13 20 18 18 20 17 11 9 8 8 17
6 7 14 33 36 40 34 34 28 24 27 24 27 29 29 20 16 16 8 16 23 4 8 11 6 10 4 8 12 16 17 12 14 17 11 19 18 11 18 11 14 15 18
6 10 11 26 36 37 34 31 22 25 29 23 25 27 31 26 20 25 7 20 28 2 9 14 15 9 10 7 12 10 8 11 13 15 15 18 18 19 16 26 25 17 23
8 7 11 21 32 40 35 30 25 27 28 28 24 26 29 29 20 28 19 17 22 11 19 20 14 10 9 9 10 10 19 23 27 25 21 20 18 27 25 25 24 18 27
17 12 13 16 25 33 29 26 23 24 30 28 20 27 37 30 27 25 27 15 19 12 20 19 13 13 10 15 14 17 10 22 23 21 23 24 23 24 26 31 41 34 33
24 18 14 18 24 25 25 25 29 29 29 28 23 25 34 36 34 29 27 21 19 22 18 23 17 12 13 8 19 19 8 7 19 11 27 28 29 38 40 45 50 46 37
24 18 18 21 24 22 34 20 28 21 19 21 19 24 33 33 27 32 32 29 26 24 8 15 16 14 19 12 14 16 17 26 22 17 15 25 35 34 35 34 22 29 28
16 20 13 17 17 17 19 28 20 26 24 23 30 26 22 27 29 25 32 34 34 23 24 24 25 19 18 21 17 20 19 15 17 19 32 26 25 29 33 34 33 23 17
7 1 8 15 13 17 19 19 34 27 22 23 23 21 26 33 38 36 34 39 33 30 24 27 25 24 32 27 32 30 18 20 24 25 33 34 37 28 33 26 20 29 39
Wind_Direction_500mb
111 357 2 2 10 140 148 162 194 327 325 331 335 337 342 351 2 12 5 13 15 14 21 20 12 319 224 213 206 190 181 166 156 122 184 213 219 217 221 217 202 210 222
88 62 57 68 109 140 146 150 213 291 311 320 324 330 343 353 1 11 15 14 5 10 17 25 13 2 6 192 207 209 202 191 190 166 159 157 176 192 212 231 223 210 224
133 91 66 75 96 126 135 156 213 252 302 316 324 336 348 2 19 20 11 11 14 13 16 25 22 355 353 354 194 208 214 208 203 187 169 169 157 141 194 207 182 197 225
90 85 52 63 84 106 113 122 174 258 332 343 12 15 12 28 29 26 32 35 30 26 26 33 38 30 5 2 353 213 214 213 208 193 178 166 201 192 210 199 186 174 152
128 164 63 80 80 85 85 93 89 69 58 59 67 59 61 53 43 43 41 37 34 30 24 26 37 42 36 13 347 281 219 207 206 196 182 151 200 212 226 222 187 177 174
141 109 102 91 80 74 71 67 66 78 81 78 71 77 74 65 53 42 38 35 30 22 20 14 13 31 42 32 358 309 243 188 189 187 178 133 194 193 203 225 191 184 174
157 162 93 91 88 84 80 75 71 72 75 69 66 71 63 54 41 38 30 22 19 19 16 6 357 357 14 33 23 347 184 157 150 147 172 186 230 234 219 233 199 184 186
159 203 71 114 98 88 80 76 74 78 81 74 66 57 42 32 15 12 11 8 3 358 3 7 4 346 346 6 33 68 138 143 134 104 10 206 215 223 234 236 199 197 191
164 225 179 146 128 101 81 75 76 75 72 70 63 49 44 52 31 19 359 352 356 346 347 354 11 26 28 30 45 100 134 150 126 105 193 192 199 203 216 211 203 196 201
170 176 224 278 129 136 83 58 70 73 63 59 58 65 56 39 20 10 13 354 338 333 344 10 28 54 67 58 53 107 128 133 129 71 186 174 178 216 204 199 203 203 204
177 198 199 216 230 257 253 321 47 65 55 45 48 52 17 7 342 315 2 358 344 357 45 49 70 62 59 57 71 112 128 94 43 168 187 156 176 187 187 183 188 195 201
193 199 202 200 196 188 236 284 315 40 31 39 25 3 5 329 207 234 316 353 7 23 25 27 43 23 349 354 71 49 57 70 183 179 196 217 151 181 170 175 183 194 214
218 201 204 200 204 199 235 280 23 301 335 256 288 58 339 183 295 293 314 344 356 359 15 341 348 348 319 204 268 319 276 197 211 223 223 248 258 203 176 179 196 225 247
209 226 203 206 204 191 204 223 204 195 233 279 276 328 36 88 315 250 245 287 323 348 321 354 323 284 328 285 36 197 215 222 199 190 187 203 214 208 194 201 224 246 267
291 227 211 212 216 210 211 218 217 188 238 234 268 287 205 181 254 291 255 230 312 307 321 307 309 305 187 314 325 222 216 168 194 156 49 162 264 250 230 230 241 253 259
306 274 262 203 220 224 241 195 229 190 213 221 246 247 277 177 262 184 301 274 304 318 307 318 292 229 285 220 282 203 227 140 291 292 144 115 216 299 272 260 260 253 252
28 275 214 212 228 233 242 221 221 217 203 229 218 240 261 253 253 253 213 297 286 272 325 320 311 337 358 309 222 255 207 214 214 132 256 282 265 271 253 333 292 265 263
135 213 203 203 230 230 240 241 224 204 207 235 225 249 269 256 215 248 185 298 259 299 313 306 340 275 278 268 261 250 245 240 229 238 226 254 262 268 264 279 251 284 292
148 135 203 192 215 235 234 227 228 207 224 225 243 227 255 268 245 275 198 275 277 216 284 271 267 299 277 288 246 218 222 235 221 246 218 209 223 266 273 293 275 297 315
182 154 185 191 200 222 240 220 236 198 225 230 254 233 241 254 216 252 248 256 291 201 283 244 272 249 236 267 271 209 205 231 233 246 223 236 255 252 254 271 280 282 294
243 215 198 191 205 213 218 220 214 225 231 234 236 239 229 245 223 241 262 266 285 233 239 266 261 291 318 271 291 266 264 224 217 227 245 239 254 239 272 260 258 288 275
276 259 236 209 218 213 207 224 228 234 243 238 247 229 230 234 230 231 259 215 268 253 269 306 274 218 221 270 282 319 259 223 245 251 228 241 248 250 258 253 258 265 262
269 275 253 233 229 220 190 229 234 228 216 220 245 239 237 242 227 231 241 258 237 257 249 279 301 244 248 310 264 304 317 2 320 273 248 242 251 253 260 268 275 276 273
236 265 270 249 225 231 196 210 237 249 248 270 247 247 246 257 250 223 242 247 248 250 217 264 291 280 268 282 309 265 261 293 305 294 304 268 291 276 264 257 269 265 265
217 232 264 270 240 221 247 210 235 264 239 271 264 246 246 243 243 244 229 246 255 254 227 234 245 258 251 249 262 289 310 269 280 281 292 290 297 291 274 266 269 263 249
86 189 237 237 258 260 240 268 232 222 251 251 269 234 248 250 253 257 231 238 252 253 254 240 253 262 259 248 243 252 274 290 286 292 277 292 289 296 278 262 264 264 271
Wind_Speed_850mb
13 12 8 6 1 4 6 5 1 3 7 13 16 17 16 16 15 11 11 10 10 12 11 10 7 4 5 12 13 15 15 16 17 15 24 37 39 45 43 28 44 51 39
3 7 10 9 7 7 6 4 2 5 8 12 14 14 13 11 11 9 9 9 11 13 11 9 8 6 2 5 14 18 18 19 18 16 17 15 13 16 36 17 40 53 45
6 15 18 13 11 10 10 6 5 5 6 10 11 10 8 9 8 9 12 12 11 12 11 10 7 6 5 2 4 13 21 20 18 15 16 13 7 11 12 16 15 28 26
13 10 16 14 13 11 9 6 2 1 4 5 5 5 7 8 10 13 14 14 13 13 12 12 10 8 7 5 1 5 14 22 22 20 19 14 25 7 11 14 17 16 21
24 14 6 12 15 14 11 7 5 4 4 5 6 7 8 11 13 14 15 16 16 15 15 14 11 9 9 8 6 3 7 14 24 25 25 14 42 21 11 13 14 14 14
15 12 13 14 17 17 15 12 9 8 8 8 9 10 10 11 11 13 14 14 13 12 12 12 12 10 8 7 6 6 3 7 16 27 24 12 30 24 11 15 16 13 14
20 1 12 12 14 16 16 15 13 11 11 11 10 9 9 10 11 13 15 16 15 14 11 10 11 10 8 6 6 3 3 8 16 26 14 14 21 17 12 14 21 22 20
17 11 4 9 10 14 16 17 15 12 13 12 10 8 8 11 15 17 16 16 18 18 17 12 9 9 7 6 8 5 11 21 27 11 13 43 33 29 26 22 26 23 20
20 17 10 10 8 10 14 16 15 14 15 14 12 10 11 16 22 24 15 12 19 19 19 17 14 11 7 6 10 11 17 32 20 21 13 24 27 24 25 26 28 22 20
17 14 5 6 5 3 12 12 13 16 16 17 18 21 17 13 18 13 17 14 24 19 16 15 16 18 23 21 15 16 30 29 17 10 18 19 15 21 23 28 26 21 19
18 15 19 14 9 3 15 10 9 15 16 16 17 22 14 20 16 6 16 24 21 17 13 20 20 23 18 23 26 25 21 15 5 35 29 18 8 18 22 21 20 18 16
26 23 20 13 14 19 16 13 8 12 12 16 17 13 20 6 7 5 21 18 21 26 15 22 17 13 13 9 10 5 8 7 24 26 12 12 5 14 20 20 19 17 14
28 28 26 27 24 19 19 12 6 7 2 6 9 2 3 4 11 15 20 13 29 14 18 21 19 19 3 8 8 11 9 7 22 17 11 5 7 18 21 20 17 14 14
32 36 30 28 32 26 18 11 18 13 9 11 9 15 9 4 10 3 9 6 14 5 14 13 10 17 1 3 5 11 9 12 19 15 8 2 6 22 22 19 16 15 15
14 24 27 31 38 32 36 17 22 15 14 17 19 14 8 9 15 4 14 2 11 7 10 11 10 11 5 2 3 6 2 16 13 6 1 7 3 13 20 20 20 20 20
16 15 16 28 36 39 35 30 34 20 18 21 13 19 17 11 19 8 9 7 7 9 8 12 13 7 5 5 8 9 13 4 4 8 6 1 6 5 12 23 26 25 23
7 11 17 26 36 38 36 34 34 24 15 21 15 30 28 20 16 13 3 8 9 14 8 9 8 11 6 8 7 4 4 6 7 5 8 12 8 10 6 7 11 21 22
7 8 22 26 38 41 44 36 30 24 25 26 24 28 29 20 18 9 2 7 19 17 8 9 6 5 6 7 9 7 6 10 13 20 18 18 20 17 11 9 8 8 17
6 7 14 33 36 40 34 34 28 24 27 24 27 29 29 20 16 16 8 16 23 4 8 11 6 10 4 8 12 16 17 12 14 17 11 19 18 11 18 11 14 15 18
6 10 11 26 36 37 34 31 22 25 29 23 25 27 31 26 20 25 7 20 28 2 9 14 15 9 10 7 12 10 8 11 13 15 15 18 18 19 16 26 25 17 23
8 7 11 21 32 40 35 30 25 27 28 28 24 26 29 29 20 28 19 17 22 11 19 20 14 10 9 9 10 10 19 23 27 25 21 20 18 27 25 25 24 18 27
17 12 13 16 25 33 29 26 23 24 30 28 20 27 37 30 27 25 27 15 19 12 20 19 13 13 10 15 14 17 10 22 23 21 23 24 23 24 26 31 41 34 33
24 18 14 18 24 25 25 25 29 29 29 28 23 25 34 36 34 29 27 21 19 22 18 23 17 12 13 8 19 19 8 7 19 11 27 28 29 38 40 45 50 46 37
24 18 18 21 24 22 34 20 28 21 19 21 19 24 33 33 27 32 32 29 26 24 8 15 16 14 19 12 14 16 17 26 22 17 15 25 35 34 35 34 22 29 28
16 20 13 17 17 17 19 28 20 26 24 23 30 26 22 27 29 25 32 34 34 23 24 24 25 19 18 21 17 20 19 15 17 19 32 26 25 29 33 34 33 23 17
7 1 8 15 13 17 19 19 34 27 22 23 23 21 26 33 38 36 34 39 33 30 24 27 25 24 32 27 32 30 18 20 24 25 33 34 37 28 33 26 20 29 39
Wind_Direction_850mb
111 357 2 2 10 140 148 162 194 327 325 331 335 337 342 351 2 12 5 13 15 14 21 20 12 319 224 213 206 190 181 166 156 122 184 213 219 217 221 217 202 210 222
88 62 57 68 109 140 146 150 213 291 311 320 324 330 343 353 1 11 15 14 5 10 17 25 13 2 6 192 207 209 202 191 190 166 159 157 176 192 212 231 223 210 224
133 91 66 75 96 126 135 156 213 252 302 316 324 336 348 2 19 20 11 11 14 13 16 25 22 355 353 354 194 208 214 208 203 187 169 169 157 141 194 207 182 197 225
90 85 52 63 84 106 113 122 174 258 332 343 12 15 12 28 29 26 32 35 30 26 26 33 38 30 5 2 353 213 214 213 208 193 178 166 201 192 210 199 186 174 152
128 164 63 80 80 85 85 93 89 69 58 59 67 59 61 53 43 43 41 37 34 30 24 26 37 42 36 13 347 281 219 207 206 196 182 151 200 212 226 222 187 177 174
141 109 102 91 80 74 71 67 66 78 81 78 71 77 74 65 53 42 38 35 30 22 20 14 13 31 42 32 358 309 243 188 189 187 178 133 194 193 203 225 191 184 174
157 162 93 91 88 84 80 75 71 72 75 69 66 71 63 54 41 38 30 22 19 19 16 6 357 357 14 33 23 347 184 157 150 147 172 186 230 234 219 233 199 184 186
159 203 71 114 98 88 80 76 74 78 81 74 66 57 42 32 15 12 11 8 3 358 3 7 4 346 346 6 33 68 138 143 134 104 10 206 215 223 234 236 199 197 191
164 225 179 146 128 101 81 75 76 75 72 70 63 49 44 52 31 19 359 352 356 346 347 354 11 26 28 30 45 100 134 150 126 105 193 192 199 203 216 211 203 196 201
170 176 224 278 129 136 83 58 70 73 63 59 58 65 56 39 20 10 13 354 338 333 344 10 28 54 67 58 53 107 128 133 129 71 186 174 178 216 204 199 203 203 204
177 198 199 216 230 257 253 321 47 65 55 45 48 52 17 7 342 315 2 358 344 357 45 49 70 62 59 57 71 112 128 94 43 168 187 156 176 187 187 183 188 195 201
193 199 202 200 196 188 236 284 315 40 31 39 25 3 5 329 207 234 316 353 7 23 25 27 43 23 349 354 71 49 57 70 183 179 196 217 151 181 170 175 183 194 214
218 201 204 200 204 199 235 280 23 301 335 256 288 58 339 183 295 293 314 344 356 359 15 341 348 348 319 204 268 319 276 197 211 223 223 248 258 203 176 179 196 225 247
209 226 203 206 204 191 204 223 204 195 233 279 276 328 36 88 315 250 245 287 323 348 321 354 323 284 328 285 36 197 215 222 199 190 187 203 214 208 194 201 224 246 267
291 227 211 212 216 210 211 218 217 188 238 234 268 287 205 181 254 291 255 230 312 307 321 307 309 305 187 314 325 222 216 168 194 156 49 162 264 250 230 230 241 253 259
306 274 262 203 220 224 241 195 229 190 213 221 246 247 277 177 262 184 301 274 304 318 307 318 292 229 285 220 282 203 227 140 291 292 144 115 216 299 272 260 260 253 252
28 275 214 212 228 233 242 221 221 217 203 229 218 240 261 253 253 253 213 297 286 272 325 320 311 337 358 309 222 255 207 214 214 132 256 282 265 271 253 333 292 265 263
135 213 203 203 230 230 240 241 224 204 207 235 225 249 269 256 215 248 185 298 259 299 313 306 340 275 278 268 261 250 245 240 229 238 226 254 262 268 264 279 251 284 292
148 135 203 192 215 235 234 227 228 207 224 225 243 227 255 268 245 275 198 275 277 216 284 271 267 299 277 288 246 218 222 235 221 246 218 209 223 266 273 293 275 297 315
182 154 185 191 200 222 240 220 236 198 225 230 254 233 241 254 216 252 248 256 291 201 283 244 272 249 236 267 271 209 205 231 233 246 223 236 255 252 254 271 280 282 294
243 215 198 191 205 213 218 220 214 225 231 234 236 239 229 245 223 241 262 266 285 233 239 266 261 291 318 271 291 266 264 224 217 227 245 239 254 239 272 260 258 288 275
276 259 236 209 218 213 207 224 228 234 243 238 247 229 230 234 230 231 259 215 268 253 269 306 274 218 221 270 282 319 259 223 245 251 228 241 248 250 258 253 258 265 262
269 275 253 233 229 220 190 229 234 228 216 220 245 239 237 242 227 231 241 258 237 257 249 279 301 244 248 310 264 304 317 2 320 273 248 242 251 253 260 268 275 276 273
236 265 270 249 225 231 196 210 237 249 248 270 247 247 246 257 250 223 242 247 248 250 217 264 291 280 268 282 309 265 261 293 305 294 304 268 291 276 264 257 269 265 265
217 232 264 270 240 221 247 210 235 264 239 271 264 246 246 243 243 244 229 246 255 254 227 234 245 258 251 249 262 289 310 269 280 281 292 290 297 291 274 266 269 263 249
86 189 237 237 258 260 240 268 232 222 251 251 269 234 248 250 253 257 231 238 252 253 254 240 253 262 259 248 243 252 274 290 286 292 277 292 289 296 278 262 264 264 271